Palermo, Italy

2:17 AM CEST on May 30, 2017 (GMT +0200)
Punta Raisi

Weather History for LICJ - November, 2012

Change the Weather History Date:

Monday, November 5, 2012

  Actual Average Record
Temperature  
Mean Temperature 74 °F -  
Max Temperature 80 °F 66 °F 80 °F (1998)
Min Temperature 69 °F 57 °F 50 °F (2006)
Cooling Degree Days 10    
Growing Degree Days 24 (Base 50)    
Moisture  
Dew Point 61 °F    
Average Humidity 63    
Maximum Humidity 83    
Minimum Humidity 36    
Precipitation  
Precipitation 0.00 in 0.12 in - ()
Sea Level Pressure  
Sea Level Pressure 29.91 in    
Wind  
Wind Speed 21 mph ()    
Max Wind Speed 32 mph    
Max Gust Speed 47 mph    
Visibility 6.2 miles    
Events      
Averages and records for this station are not official NWS values.
T = Trace of Precipitation, MM = Missing Value Source: Averaged Metar Reports

Daily Weather History Graph

Daily Weather History Graph

Search for Another Location

Airport or City:

Trip Planner

Search our weather history database for the weather conditions in past years. The results will help you decide how hot, cold, wet, or windy it might be!

Date:

Astronomy

Nov. 05, 2012 Rise Set
Actual Time 6:38 AM CET 5:03 PM CET
Civil Twilight 6:10 AM CET 5:31 PM CET
Nautical Twilight 5:39 AM CET 6:02 PM CET
Astronomical Twilight 5:08 AM CET 6:33 PM CET
Moon 10:24 PM CET (11/5) 11:47 AM CET (11/5)
Length of Visible Light 11h 20m
Length of Day
10h 25m
Waning Gibbous, 65% of the Moon is Illuminated
Nov 5
Waning Gibbous
Nov 7
Last Quarter
Nov 13
New
Nov 20
First Quarter
Nov 28
Full

Hourly Weather History & Observations

Time (CET) Temp. Heat Index Dew Point Humidity Pressure Visibility Wind Dir Wind Speed Gust Speed Precip Events Conditions
12:20 AM 78.8 °F - 50.0 °F 36% 29.89 in - South 27.6 mph 47.2 mph N/A   Clear
12:50 AM 78.8 °F - 51.8 °F 39% 29.89 in - South 26.5 mph - N/A   Clear
1:20 AM 78.8 °F - 51.8 °F 39% 29.89 in - SSW 32.2 mph 47.2 mph N/A   Clear
1:50 AM 77.0 °F - 55.4 °F 47% 29.89 in - SSW 31.1 mph 43.7 mph N/A   Clear
2:50 AM 75.2 °F - 57.2 °F 53% 29.86 in - SSW 29.9 mph 44.9 mph N/A   Clear
4:20 AM 75.2 °F - 59.0 °F 57% 29.86 in - South 25.3 mph 39.1 mph N/A   Clear
4:50 AM 77.0 °F - 59.0 °F 54% 29.83 in - South 25.3 mph - N/A   Clear
5:20 AM 77.0 °F - 59.0 °F 54% 29.83 in - South 23.0 mph - N/A   Clear
5:50 AM 77.0 °F - 59.0 °F 54% 29.83 in - SSW 27.6 mph - N/A   Clear
6:20 AM 78.8 °F - 59.0 °F 51% 29.83 in - SSW 27.6 mph - N/A   Clear
6:50 AM 78.8 °F - 57.2 °F 47% 29.83 in - SSW 25.3 mph - N/A   Clear
7:20 AM 78.8 °F - 57.2 °F 47% 29.83 in - SSW 19.6 mph - N/A   Clear
7:50 AM 80.6 °F 80.5 °F 55.4 °F 42% 29.83 in - SSW 21.9 mph - N/A   Clear
8:20 AM 78.8 °F - 60.8 °F 54% 29.86 in - SW 19.6 mph - N/A   Clear
8:50 AM 75.2 °F - 60.8 °F 61% 29.86 in 6.2 mi SSW 25.3 mph - N/A   Partly Cloudy
9:20 AM 75.2 °F - 62.6 °F 65% 29.89 in - SSW 21.9 mph - N/A   Clear
9:50 AM 75.2 °F - 64.4 °F 69% 29.89 in - SW 23.0 mph - N/A   Clear
10:20 AM 77.0 °F - 64.4 °F 65% 29.92 in - SSW 21.9 mph - N/A   Clear
10:50 AM 77.0 °F - 64.4 °F 65% 29.92 in 6.2 mi South 21.9 mph - N/A   Partly Cloudy
11:20 AM 77.0 °F - 64.4 °F 65% 29.89 in - SSW 23.0 mph - N/A   Clear
11:50 AM 78.8 °F - 64.4 °F 61% 29.89 in - SSW 20.7 mph - N/A   Clear
12:20 PM 78.8 °F - 64.4 °F 61% 29.89 in - South 19.6 mph - N/A   Clear
12:50 PM 77.0 °F - 62.6 °F 61% 29.89 in 6.2 mi SSW 17.3 mph - N/A   Partly Cloudy
1:50 PM 77.0 °F - 62.6 °F 61% 29.89 in 6.2 mi SSW 17.3 mph - N/A   Partly Cloudy
2:20 PM 77.0 °F - 62.6 °F 61% 29.89 in 6.2 mi SSW 18.4 mph - N/A   Partly Cloudy
2:50 PM 77.0 °F - 60.8 °F 57% 29.89 in 6.2 mi South 20.7 mph - N/A   Mostly Cloudy
3:20 PM 77.0 °F - 60.8 °F 57% 29.89 in 6.2 mi SW 18.4 mph - N/A   Mostly Cloudy
3:50 PM 75.2 °F - 62.6 °F 65% 29.92 in 6.2 mi SSW 17.3 mph - N/A   Scattered Clouds
4:20 PM 75.2 °F - 62.6 °F 65% 29.92 in 6.2 mi SSW 16.1 mph - N/A   Scattered Clouds
4:50 PM 73.4 °F - 64.4 °F 73% 29.92 in 6.2 mi SW 16.1 mph - N/A   Scattered Clouds
5:20 PM 73.4 °F - 64.4 °F 73% 29.92 in 6.2 mi SSW 15.0 mph - N/A   Partly Cloudy
5:50 PM 73.4 °F - 64.4 °F 73% 29.92 in 6.2 mi WSW 20.7 mph - N/A   Partly Cloudy
6:20 PM 73.4 °F - 62.6 °F 69% 29.95 in 6.2 mi SW 17.3 mph - N/A   Partly Cloudy
6:50 PM 73.4 °F - 64.4 °F 73% 29.95 in 6.2 mi WSW 19.6 mph - N/A   Partly Cloudy
7:20 PM 71.6 °F - 64.4 °F 78% 29.95 in 6.2 mi WSW 16.1 mph - N/A   Partly Cloudy
7:50 PM 71.6 °F - 64.4 °F 78% 29.98 in 6.2 mi WSW 19.6 mph - N/A   Partly Cloudy
8:20 PM 71.6 °F - 64.4 °F 78% 29.98 in 6.2 mi WSW 16.1 mph - N/A   Partly Cloudy
8:50 PM 71.6 °F - 64.4 °F 78% 30.01 in 6.2 mi WSW 15.0 mph - N/A   Partly Cloudy
9:20 PM 69.8 °F - 64.4 °F 83% 30.01 in 6.2 mi WSW 17.3 mph - N/A   Partly Cloudy
9:50 PM 69.8 °F - 62.6 °F 78% 30.01 in 6.2 mi West 19.6 mph - N/A   Partly Cloudy
10:20 PM 69.8 °F - 64.4 °F 83% 30.04 in 6.2 mi West 19.6 mph - N/A   Partly Cloudy
10:50 PM 69.8 °F - 62.6 °F 78% 30.04 in 6.2 mi WSW 13.8 mph - N/A   Partly Cloudy
11:20 PM 69.8 °F - 62.6 °F 78% 30.04 in 6.2 mi WSW 15.0 mph - N/A   Partly Cloudy
11:50 PM 69.8 °F - 60.8 °F 73% 30.04 in 6.2 mi WSW 13.8 mph - N/A   Partly Cloudy